Flag for Germany

Past Weather in Wiehl, North Rhine-Westphalia, Germany — Yesterday and Last 2 Weeks

Now
68 °F

Passing clouds.


Feels Like: 68 °F
Forecast: 78 / 64 °F
Wind: 6 mph from East

Location: Koeln / Bonn
Current Time: Aug 13, 2020 at 8:27:40 am
Latest Report: Aug 13, 2020 at 7:50 am
Visibility: N/A
Pressure29.89 "Hg
Humidity: 88%
Dew Point: 64 °F
Location of WiehlLocation

Past Weather in Wiehl — Graph

°F

Wiehl Temperature Yesterday

Maximum temperature yesterday: 90 °F (at 3:50 pm)
Minimum temperature yesterday: 64 °F (at 6:50 pm)
Average temperature yesterday: 73 °F

High & Low Weather Summary for the Past Weeks

 TemperatureHumidityPressure
High99 °F (Aug 8, 4:50 pm)100% (Jul 30, 6:20 am)30.18 "Hg (Jul 30, 6:20 am)
Low48 °F (Jul 30, 6:20 am)20% (Aug 7, 7:20 pm)29.86 "Hg (Aug 3, 3:50 pm)
Average74 °F56%30.02 "Hg
* Reported Jul 29 7:20 am — Aug 13 7:20 am, Wiehl. Weather by CustomWeather, © 2020

Note: Actual official high and low records may vary slightly from our data, if they occured in-between our weather recording intervals... More about our weather records

Wiehl Weather History for the Previous 24 Hours

Scroll right to see more
 ConditionsComfort  
Time TempWeatherWind HumidityBarometerVisibility
7:20 am
Thu, Aug 13
66 °FPassing clouds.6 mph94%29.92 "HgN/A
6:50 am66 °FSunny.5 mph94%29.89 "Hg10 mi
6:20 am64 °FSunny.5 mph100%29.89 "Hg10 mi
5:50 am64 °FClear.1 mph94%29.89 "Hg10 mi
5:20 am66 °FPassing clouds.5 mph94%29.89 "HgN/A
4:50 am68 °FPassing clouds.5 mph88%29.89 "HgN/A
4:20 am68 °FPassing clouds.6 mph88%29.89 "HgN/A
3:50 am68 °FPassing clouds.3 mph88%29.89 "HgN/A
3:20 am66 °FPassing clouds.5 mph94%29.92 "HgN/A
2:50 am68 °FPassing clouds.3 mph88%29.89 "HgN/A
1:50 am66 °FPassing clouds.9 mph94%29.89 "HgN/A
1:20 am66 °FScattered showers. Passing clouds.5 mph94%29.92 "HgN/A
12:50 am66 °FPassing clouds.3 mph94%29.92 "HgN/A
12:20 am66 °FPassing clouds.3 mph94%29.92 "HgN/A
11:50 pm
Wed, Aug 12
66 °FPassing clouds.5 mph94%29.92 "HgN/A
11:20 pm68 °FPassing clouds.7 mph88%29.92 "HgN/A
10:50 pm68 °FLight rain. Passing clouds.13 mph88%29.95 "HgN/A
10:20 pm68 °FSprinkles. Passing clouds.14 mph88%29.95 "HgN/A
9:50 pm68 °FThundershowers. Passing clouds.12 mph88%29.95 "HgN/A
9:20 pm66 °FThundershowers. Passing clouds.9 mph94%29.95 "HgN/A
8:50 pm66 °FRain showers. Scattered clouds.9 mph94%29.95 "HgN/A
8:20 pm68 °FThunderstorms. Scattered clouds.15 mph88%29.95 "HgN/A
7:50 pm68 °FThunderstorms. Scattered clouds.12 mph88%29.92 "HgN/A
7:20 pm68 °FStrong thunderstorms. Overcast.25 mph88%29.95 "Hg2 mi
6:50 pm64 °FStrong thunderstorms. Partly sunny.45 mph100%29.98 "Hg1 mi
6:20 pm84 °FThundershowers. Scattered clouds.6 mph62%29.89 "HgN/A
5:50 pm86 °FScattered clouds.5 mph55%29.89 "HgN/A
5:20 pm88 °FPassing clouds.6 mph52%29.89 "HgN/A
4:50 pm88 °FPassing clouds.7 mph49%29.92 "HgN/A
4:20 pm90 °FPassing clouds.8 mph43%29.92 "HgN/A
3:50 pm90 °FPassing clouds.8 mph43%29.92 "HgN/A
3:20 pm86 °FPassing clouds.8 mph49%29.92 "HgN/A
2:50 pm88 °FPassing clouds.12 mph46%29.95 "HgN/A
2:20 pm88 °FPassing clouds.12 mph49%29.95 "HgN/A
1:50 pm84 °FPassing clouds.9 mph55%29.95 "HgN/A
1:20 pm82 °FPassing clouds.13 mph55%29.98 "HgN/A
12:50 pm82 °FPassing clouds.10 mph58%29.98 "HgN/A
12:20 pm79 °FPassing clouds.8 mph70%29.98 "HgN/A
11:50 am77 °FPassing clouds.9 mph69%29.98 "HgN/A
11:20 am73 °FPassing clouds.6 mph78%30.01 "HgN/A
10:50 am72 °FPassing clouds.6 mph83%29.98 "HgN/A
10:20 am70 °FPassing clouds.7 mph88%29.98 "HgN/A
9:50 am68 °FSprinkles. Scattered clouds.12 mph94%29.98 "HgN/A
9:20 am68 °FSprinkles. Passing clouds.8 mph94%30.01 "HgN/A
8:50 am68 °FRain showers. Scattered clouds.7 mph94%30.01 "HgN/A
8:20 am68 °FThundershowers. Scattered clouds.5 mph94%30.01 "HgN/A
Weather by CustomWeather, © 2020

See weather overview